This demonstration page uses our WeatherBlox Daily Observations layout. Learn more.

Left ArrowRight Arrow

Hourly Observations for November 8, 2018

Temp ( °F °C ) Dew Point ( °F °C ) Humidity (%) Winds ( mph kmh ) Pressure ( in mb ) Visibility ( mi km ) Precip ( " mm )
12:53 am 00:53 Clear 32 0 28 -2.2 85 85 Calm 30.30 1026 10 16 0.00 0.00
1:53 am 01:53 Clear 31 -0.6 27 -2.8 85 85 NNW 3 6 30.30 1026 10 16 0.00 0.00
2:53 am 02:53 Clear 29 -1.7 26 -3.3 89 89 NNW 3 6 30.31 1027 10 16 0.00 0.00
3:53 am 03:53 Clear 28 -2.2 26 -3.3 92 92 NNW 3 6 30.32 1027 10 16 0.00 0.00
4:53 am 04:53 Clear 29 -1.7 24 -4.4 82 82 NNW 3 6 30.33 1027 10 16 0.00 0.00
5:53 am 05:53 Clear 30 -1.1 25 -3.9 82 82 Calm 30.34 1027 10 16 0.00 0.00
6:53 am 06:53 Clear 29 -1.7 25 -3.9 85 85 Calm 30.35 1028 8 13 0.00 0.00
7:53 am 07:53 Sunny 31 -0.6 28 -2.2 89 89 Calm 30.37 1029 10 16 0.00 0.00
8:53 am 08:53 Sunny 35 1.7 31 -0.6 85 85 Calm 30.40 1029 10 16 0.00 0.00
9:53 am 09:53 Sunny 37 2.8 31 -0.6 79 79 NNE 5 7 30.41 1030 10 16 0.00 0.00
10:53 am 10:53 Sunny 40 4.4 31 -0.6 70 70 NNE 7 11 30.40 1029 10 16 0.00 0.00
11:53 am 11:53 Sunny 41 5 31 -0.6 67 67 ENE 8 13 30.39 1029 10 16 0.00 0.00
12:53 pm 12:53 Sunny 43 6.1 32 0 65 65 VRB 6 9 30.36 1028 10 16 0.00 0.00
1:53 pm 13:53 Mostly Sunny 44 6.7 32 0 63 63 E 7 11 30.35 1028 10 16 0.00 0.00
2:53 pm 14:53 Mostly Sunny 44 6.7 32 0 63 63 E 7 11 30.35 1028 10 16 0.00 0.00
3:53 pm 15:53 Partly Cloudy 44 6.7 33 0.6 65 65 NE 7 11 30.33 1027 10 16 0.00 0.00
4:53 pm 16:53 Sunny 44 6.7 33 0.6 65 65 ENE 8 13 30.32 1027 10 16 0.00 0.00
5:53 pm 17:53 Mostly Clear 43 6.1 32 0 65 65 ENE 9 15 30.31 1026 10 16 0.00 0.00
6:53 pm 18:53 Mostly Cloudy 42 5.6 32 0 68 68 E 7 11 30.30 1026 10 16 0.00 0.00
7:53 pm 19:53 Mostly Cloudy 42 5.6 32 0 68 68 ENE 7 11 30.28 1025 10 16 0.00 0.00
8:53 pm 20:53 Cloudy 42 5.6 32 0 68 68 ENE 6 9 30.27 1025 10 16 0.00 0.00
9:53 pm 21:53 Cloudy 42 5.6 32 0 68 68 ENE 7 11 30.24 1024 10 16 0.00 0.00
10:53 pm 22:53 Cloudy 42 5.6 32 0 68 68 ENE 8 13 30.21 1023 10 16 0.00 0.00
11:53 pm 23:53 Cloudy 42 5.6 32 0 68 68 ENE 7 11 30.19 1023 10 16 0.00 0.00

Powered by AerisWeather